OSCAR 10

Satellite information

Favourite Embed

Satellite Type and Status

PAYLOADIN ORBIT

Key statistics

Satellite OSCAR 10 at a glance.

Uptime

15476

Days in orbit

Revolutions

≈ 2.1

Per day

Orbit

OTHER

Other

Inclination

26.2

Latest

Satellite identification and parameters

Extended collection of information and parameters for OSCAR 10.

Object identification

Identified? True

Debris? False

Object name: OSCAR 10

International designator: 1983-058B

Object number (NORAD): 14129

Object ID (CCSDS): 14129

Country: GERMANY (GER)

Current information (Y/N): Y

RCS size: LARGE

Orbital parameters

Period: 699.463 minutes

Inclination: 26.1819 deg

SMA: 26101.78 km

Apoapsis: 35561.377 km

Periapsis: 3885.912 km

RAAN: 258.9311 deg

Eccentricy: 0.60676831

Argument of periapsis: 50.9689 deg

Mean anomaly: 349.0069 deg

Mean motion: 2.05872144 rev/day

Mean motion (dot): -0.00000157 rev/day2

B* drag term: 0.0 1/REarth

Two-line elements (TLE)

Creation date: Oct. 28, 2025, 7:11 p.m.

Reference frame: TEME

Reference center: EARTH

Epoch: Oct. 28, 2025, 5:31 a.m. UTC

TLE line 0: 0 OSCAR 10

TLE line 1: 1 14129U 83058B 25301.23012410 -.00000157 00000-0 00000-0 0 9999

TLE line 2: 2 14129 26.1819 258.9311 6067683 50.9689 349.0069 2.05872144290711

Live tracking on map

Real-time ground track for satellite OSCAR 10.

In-orbit conjunctions

A list of the most updated potential collisions computed for object OSCAR 10.

Target Orbit TCA Probability of collision Miss distance Type
SL-12 R/B(AUX MOTOR) HEO 2025-06-24 20:54:16 TBA 4158.0 (m) ROCKET BODY

Associated space launch

Geostationary communications satellite

OSCAR 10 was lifted into orbit during the mission ‘Ariane 1 | ECS 1’, on board a Ariane 1 space rocket.

The launch took place on June 16, 1983, 11:59 a.m. from Ariane Launch Area 1 (ELV).

For more information about the launch, click the button.

Launch to space Ariane 1 | ECS 1
Ariane 1 | ECS 1

Agency: N/A

Status: Launch Successful

Launch date: June 16, 1983, 11:59 a.m. UTC

Rocket: Ariane 1

Launch pad: Ariane Launch Area 1 (ELV)

Location: Guiana Space Centre, French Guiana

...

Latest news about this satellite

There are no fresh news available about this satellite. Check back as we update our databases every day.


Newsletter sign-up

Weekly statistics, charts and insights to help you stay on top of the space industry.